Location: Unspecified
(48.2082°N, 0.0000°E)
Time: 04:29:27
(UTC+00:00)

Vanguard 1 - Pass Details

Date: 04 July 2019
Orbit: 653 x 3830 km, 34.3° (Epoch: 20 July)

Event Time Altitude Azimuth Distance (km) Brightness Sun altitude
Rises 00:20:39 0° 240° (WSW) 7,829 14.3 -18.8°
Reaches altitude 10° 00:26:08 10° 236° (SW) 6,910 14.0 -18.7°
Maximum altitude 00:47:50 50° 171° (S) 4,025 12.7 -18.2°
Drops below altitude 10° 01:03:30 10° 102° (ESE) 5,163 13.7 -17.7°
Sets 01:06:52 0° 97° (E) 5,813 14.1 -17.5°
